GLO1013 SBRJ-SBSP

Flight info

Callsign GLO1013
Flight time N/A
Altitude 32000
Route NAXOP UZ45 IBDAL
Aircraft B738/M-SDE2E3FGHIRWXY/LB1

Departure

Time 2026-05-06 18:19
Airport Santos Dumont Airport (SBRJ)

Arrival

Time N/A
Airport Congonhas–Deputado Freitas Nobre Airport (SBSP)
Time Latitude Longitude Altitude Speed Heading
2026-05-06 18:16 -22.90497 -43.16479 22 ft 0 kts 86°
2026-05-06 18:16 -22.90497 -43.16474 22 ft 2 kts 86°
2026-05-06 18:17 -22.90495 -43.16455 22 ft 3 kts 86°
2026-05-06 18:17 -22.90494 -43.16430 22 ft 4 kts 85°
2026-05-06 18:17 -22.90492 -43.16397 23 ft 5 kts 85°
2026-05-06 18:17 -22.90484 -43.16364 24 ft 4 kts 64°
2026-05-06 18:18 -22.90473 -43.16334 23 ft 4 kts 83°
2026-05-06 18:18 -22.90496 -43.16320 25 ft 5 kts 175°
2026-05-06 18:18 -22.90553 -43.16315 26 ft 15 kts 176°
2026-05-06 18:18 -22.90965 -43.16288 24 ft 107 kts 176°
2026-05-06 18:19 -22.91927 -43.16222 394 ft 153 kts 176°
2026-05-06 18:19 -22.92972 -43.15942 1351 ft 156 kts 139°
2026-05-06 18:19 -22.93738 -43.15084 2202 ft 172 kts 133°
2026-05-06 18:19 -22.94686 -43.14086 2581 ft 207 kts 134°
2026-05-06 18:20 -22.95791 -43.12947 2989 ft 227 kts 134°
2026-05-06 18:20 -22.96959 -43.11780 3663 ft 234 kts 136°
2026-05-06 18:20 -22.98189 -43.10589 4515 ft 238 kts 139°
2026-05-06 18:20 -22.99714 -43.09889 5454 ft 246 kts 175°
2026-05-06 18:21 -23.01439 -43.10281 6087 ft 271 kts 208°
2026-05-06 18:21 -23.02971 -43.11592 6771 ft 286 kts 221°
2026-05-06 18:21 -23.04483 -43.13019 7514 ft 290 kts 220°
2026-05-06 18:21 -23.06019 -43.14435 7881 ft 290 kts 219°
2026-05-06 18:22 -23.07574 -43.15844 8053 ft 295 kts 218°
2026-05-06 18:22 -23.09169 -43.17241 8830 ft 298 kts 218°
2026-05-06 18:22 -23.10780 -43.18641 9960 ft 297 kts 218°
2026-05-06 18:22 -23.12430 -43.20073 10639 ft 311 kts 218°
2026-05-06 18:23 -23.14196 -43.21606 10870 ft 340 kts 218°
2026-05-06 18:23 -23.16085 -43.23250 11447 ft 351 kts 218°
2026-05-06 18:23 -23.17995 -43.24914 12323 ft 354 kts 219°
2026-05-06 18:23 -23.19925 -43.26597 13172 ft 358 kts 219°
2026-05-06 18:24 -23.21884 -43.28307 13937 ft 363 kts 219°
2026-05-06 18:24 -23.23862 -43.30034 14696 ft 365 kts 219°
2026-05-06 18:24 -23.25839 -43.31760 15519 ft 365 kts 218°
2026-05-06 18:24 -23.27832 -43.33501 16260 ft 369 kts 218°
2026-05-06 18:25 -23.29814 -43.35233 17020 ft 369 kts 218°